Flag for U.S.A. Weather past 2 weeks in Buffalo, New York, U.S.A.

Now
29 °F

Light freezing rain. Ice fog.


Feels Like: 20 °F
Forecast: 27 / 30 °F
Wind: 10 mph from Northwest

Location: Greater Buffalo International Airport

Current Time: Dec 18, 2014 at 8:37:24 PM

Latest Report: Dec 18, 2014 at 7:54 PM


Visibility: 10 mi

Pressure: 30.11 "Hg

Humidity: 85%

Dew point: 25 °F

Location of BuffaloLocation

Historic Weather in Buffalo — Graph

°F

Buffalo temperature yesterday

Maximum temperature yesterday: 42 °F (at 12:54 AM)
Minimum temperature yesterday: 30 °F (at 10:54 PM)
Average temperature yesterday: 36 °F

Past Weeks' High & Low Weather Summary

 TemperatureHumidityPressure
High46 °F (Dec 16, 3:54 PM)97% (Dec 6, 8:54 AM)30.76 "Hg (Dec 6, 8:54 AM)
Low23 °F (Dec 8, 4:54 AM)26% (Dec 8, 11:54 AM)29.72 "Hg (Dec 16, 2:54 PM)
Average33 °F79%30.14 "Hg
* Reported Dec 3 6:54 PM — Dec 18 6:54 PM, Buffalo, Weather by CustomWeather, © 2014

Note: Actual official high and low records may vary slightly from our data, if they occured in-between our weather recording intervals... More about our weather records

Advertising

Buffalo weather history for previous 24 hours

 ConditionsComfort  
Time TempWeatherWind HumidityBarometerVisibility
6:54 PM
Dec 18
30 °FLight freezing rain. Overcast.9 mph85%30.12 "Hg5 mi
5:54 PM30 °FLight freezing rain. Mostly cloudy.9 mph89%30.11 "Hg6 mi
4:54 PM31 °FMostly cloudy.10 mph82%30.09 "Hg10 mi
3:54 PM31 °FMostly cloudy.14 mph82%30.09 "Hg10 mi
2:54 PM31 °FLight snow. Overcast.12 mph82%30.08 "Hg9 mi
1:54 PM31 °FLight snow. Mostly cloudy.13 mph79%30.08 "Hg10 mi
12:54 PM31 °FLight freezing rain. Overcast.14 mph82%30.09 "Hg5 mi
11:54 AM32 °FLight snow. Mostly cloudy.13 mph79%30.10 "Hg10 mi
10:54 AM31 °FLight snow. Mostly cloudy.8 mph85%30.11 "Hg10 mi
9:54 AM31 °FMostly cloudy.9 mph82%30.12 "Hg10 mi
8:54 AM31 °FCloudy.10 mph82%30.11 "Hg10 mi
7:54 AM30 °FMostly cloudy.14 mph85%30.11 "Hg10 mi
6:54 AM30 °FOvercast.14 mph79%30.10 "Hg10 mi
5:54 AM30 °FOvercast.13 mph79%30.08 "Hg10 mi
4:54 AM30 °FOvercast.17 mph75%30.07 "Hg10 mi
3:54 AM30 °FOvercast.18 mph75%30.06 "Hg10 mi
2:54 AM30 °FOvercast.16 mph75%30.06 "Hg10 mi
1:54 AM29 °FOvercast.17 mph79%30.04 "Hg10 mi
12:54 AM29 °FPassing clouds.16 mph75%30.02 "Hg10 mi
11:54 PM
Dec 17
30 °FPassing clouds.20 mph75%30.01 "Hg10 mi
10:54 PM30 °FLight snow. Mostly cloudy.17 mph82%30.01 "Hg3 mi
9:54 PM31 °FLight snow. Mostly cloudy.16 mph82%30.01 "Hg4 mi
8:54 PM31 °FLight snow. Ice fog.15 mph85%30.01 "Hg2 mi
Weather by CustomWeather, © 2014

See weather overviewHow to use our weather pages